Location: Krakow
(50.0830°N, 19.9170°E)
Time: 11:54:29
(UTC+02:00)

A-11 Canister half - Pass Details

Date: 22 March 2026
Orbit: 1523 x 1684 km, 47.3° (Epoch: 16 April)

Event Time Altitude Azimuth Distance (km) Brightness Sun altitude
Rises 06:28:15 0° 207° (SSW) 4,916 11.4 7.0°
Reaches altitude 10° 06:31:48 10° 199° (SSW) 3,919 11.1 7.6°
Maximum altitude 06:40:25 34° 139° (SE) 2,461 10.9 9.0°
Drops below altitude 10° 06:48:51 10° 80° (E) 3,835 12.7 10.3°
Sets 06:52:16 0° 72° (ENE) 4,799 12.7 10.8°
